Regional Weather Roundup
Issued by NWS

Home | Current Version | Previous Version | Graphics & Text | Print | Product List | Glossary On
Versions: 1 2 3 4 5 6 7 8 9 10 11 12 13 14 15 16 17 18 19 20 21 22 23 24 25 26 27 28 29 30 31 32 33 34 35 36 37 38 39 40 41 42 43 44 45 46 47 48 49 50
000
ASUS44 KMEG 161010
RWRTN
TENNESSEE HOURLY STATE WEATHER ROUNDUP
NATIONAL WEATHER SERVICE MEMPHIS TN
500 AM CDT MON OCT 16 2017

TNZ002-004-019-021-049-052-054-088>092-161100-
WEST TENNESSEE

CITY           SKY/WX    TMP DP  RH WIND       PRES   REMARKS
MEMPHIS INTL   CLEAR     51  45  79 N9        30.30R
NWS MEMPHIS      N/A     51 N/A N/A MISG        N/A
JACKSON        CLEAR     47  45  93 N8        30.30R
DYERSBURG      CLEAR     48  44  86 NE8       30.33R
UNION CITY     CLEAR     45  41  87 N7        30.31S
PARIS          CLEAR     45  43  93 N5        30.30R
HUNTINGDON     CLEAR     46  45  93 N5        30.29R
$$

TNZ008-025-027-028-033-062-065-066-161100-
NORTH MIDDLE TENNESSEE

CITY           SKY/WX    TMP DP  RH WIND       PRES   REMARKS
NASHVILLE      CLOUDY    51  42  71 N9        30.26R
PORTLAND       PTCLDY    48  43  81 N3        30.26R
CLARKSVILLE    CLEAR     45  42  89 NW8       30.29R
SMYRNA         CLOUDY    53  42  66 N12       30.27R
CROSSVILLE     CLOUDY    47  40  76 N10G21    30.21R
$$

TNZ061-075-076-078-094-096-097-161100-
SOUTH MIDDLE TENNESSEE

CITY           SKY/WX    TMP DP  RH WIND       PRES   REMARKS
TULLAHOMA      CLOUDY    50  41  71 N8        30.22R
WINCHESTER     CLOUDY    50  45  81 N7          N/A
MCMINNVILLE    CLOUDY    52  45  76 N7        30.22R
COLUMBIA       CLOUDY    52  43  71 N8G14     30.23S
SHELBYVILLE    CLOUDY    52  43  71 N10       30.23R
$$

TNZ017-018-042-046-047-161100-
NORTHEAST TENNESSEE

CITY           SKY/WX    TMP DP  RH WIND       PRES   REMARKS
TRI CITIES     CLOUDY    52  49  89 N6        30.15R
ELIZABETHTON   CLOUDY    54  50  87 SE6       30.13R
$$

TNZ012-013-036-069-073-074-161100-
CENTRAL EAST TENNESSEE

CITY           SKY/WX    TMP DP  RH WIND       PRES   REMARKS
KNOXVILLE      NOT AVBL
OAK RIDGE      CLOUDY    53  47  79 VRB5      30.20R
GATLINBURG     CLOUDY    54  50  87 NW7       30.18R
MORRISTOWN     CLOUDY    52  48  87 N6        30.16S
JACKSBORO      PTCLDY    48  43  81 CALM      30.24R
$$

TNZ083-085-099-161100-
SOUTHEAST TENNESSEE

CITY           SKY/WX    TMP DP  RH WIND       PRES   REMARKS
CHATTANOOGA    MOCLDY    52  45  77 N14       30.18R
DAYTON         PTSUNNY   52  48  87 N7        30.18R
$$

SKY/WX REPORTED AS FAIR MEANS FEW OR NO CLOUDS BELOW
12 THOUSAND FEET.





USA.gov is the U.S. government's official web portal to all federal, state and local government web resources and services.